• In Uzbekistan
  • List of Countries
  • For 7 days
  • Water Temperature
  • Satellite Maps
  • Weather Map
  • Weather Widgets
  • user-avatar
    Login

    Hourly Weather Kroscienko

    Today, 23 September, Sunday

    Time Temperature Precipitation Wind Pressure Humidity
    00:00 +8°C° 0 mm 2 mps 728 mmHg 82%
    01:00 +8°C° 0 mm 2 mps 728 mmHg 82%
    02:00 +9°C° 0 mm 1 mps 728 mmHg 83%
    03:00 +8°C° 0 mm 2 mps 728 mmHg 84%
    04:00 +8°C° 0 mm 2 mps 728 mmHg 84%
    05:00 +8°C° 0 mm 2 mps 728 mmHg 85%
    06:00 +8°C° 0 mm 2 mps 728 mmHg 83%
    07:00 +9°C° 0 mm 3 mps 727 mmHg 82%
    08:00 +9°C° 0 mm 3 mps 727 mmHg 80%
    09:00 +11°C° 0 mm 3 mps 727 mmHg 73%
    10:00 +13°C° 0 mm 4 mps 727 mmHg 66%
    11:00 +14°C° 0 mm 4 mps 727 mmHg 58%
    12:00 +15°C° 0 mm 4 mps 727 mmHg 57%
    13:00 +15°C° 0 mm 5 mps 727 mmHg 55%
    14:00 +16°C° 0 mm 5 mps 727 mmHg 54%
    15:00 +16°C° 0 mm 5 mps 726 mmHg 56%
    16:00 +15°C° 0 mm 4 mps 726 mmHg 58%
    17:00 +15°C° 0 mm 4 mps 725 mmHg 60%
    18:00 +14°C° 0 mm 4 mps 724 mmHg 61%
    19:00 +14°C° 0 mm 5 mps 724 mmHg 62%
    20:00 +14°C° 0 mm 5 mps 723 mmHg 63%
    21:00 +14°C° 0 mm 6 mps 722 mmHg 60%
    22:00 +14°C° 0 mm 7 mps 721 mmHg 57%
    23:00 +15°C° 0 mm 8 mps 719 mmHg 54%

    Tomorrow, 24 September, Monday

    Time Temperature Precipitation Wind Pressure Humidity
    00:00 +15°C° 0.4 mm 8 mps 718 mmHg 59%
    01:00 +15°C° 0.4 mm 9 mps 718 mmHg 63%
    02:00 +15°C° 0.4 mm 9 mps 717 mmHg 67%
    03:00 +13°C° 2.8 mm 9 mps 716 mmHg 74%
    04:00 +13°C° 2.8 mm 8 mps 716 mmHg 81%
    05:00 +12°C° 2.8 mm 8 mps 716 mmHg 88%
    06:00 +11°C° 1.1 mm 8 mps 717 mmHg 89%
    07:00 +10°C° 1.1 mm 8 mps 718 mmHg 89%
    08:00 +8°C° 1.1 mm 7 mps 720 mmHg 90%
    09:00 +8°C° 0.3 mm 7 mps 721 mmHg 88%
    10:00 +8°C° 0.3 mm 7 mps 722 mmHg 86%
    11:00 +8°C° 0.3 mm 6 mps 724 mmHg 85%
    12:00 +8°C° 0.3 mm 7 mps 724 mmHg 82%
    13:00 +8°C° 0.3 mm 7 mps 725 mmHg 78%
    14:00 +9°C° 0.3 mm 8 mps 725 mmHg 75%
    15:00 +9°C° 0.1 mm 7 mps 726 mmHg 72%
    16:00 +9°C° 0.1 mm 7 mps 726 mmHg 69%
    17:00 +8°C° 0.1 mm 6 mps 727 mmHg 65%
    18:00 +7°C° 0 mm 6 mps 727 mmHg 67%
    19:00 +6°C° 0 mm 5 mps 728 mmHg 70%
    20:00 +5°C° 0 mm 5 mps 728 mmHg 72%
    21:00 +5°C° 0 mm 5 mps 728 mmHg 71%
    22:00 +5°C° 0 mm 5 mps 728 mmHg 71%
    23:00 +3°C° 0 mm 5 mps 728 mmHg 70%

    Day after tomorrow, 25 September, Tuesday

    Time Temperature Precipitation Wind Pressure Humidity
    00:00 +3°C° 0.3 mm 6 mps 729 mmHg 76%
    01:00 +3°C° 0.3 mm 6 mps 729 mmHg 82%
    02:00 +3°C° 0.3 mm 6 mps 729 mmHg 87%
    03:00 +3°C° 0.2 mm 5 mps 730 mmHg 88%
    04:00 +3°C° 0.2 mm 5 mps 730 mmHg 90%
    05:00 +4°C° 0.2 mm 4 mps 731 mmHg 91%
    06:00 +4°C° 0 mm 4 mps 732 mmHg 89%
    07:00 +3°C° 0 mm 5 mps 733 mmHg 88%
    08:00 +3°C° 0 mm 5 mps 733 mmHg 87%
    09:00 +5°C° 0.1 mm 5 mps 734 mmHg 79%
    10:00 +6°C° 0.1 mm 5 mps 734 mmHg 72%
    11:00 +7°C° 0.1 mm 6 mps 735 mmHg 64%
    12:00 +8°C° 0.1 mm 6 mps 735 mmHg 61%
    13:00 +8°C° 0.1 mm 6 mps 735 mmHg 57%
    14:00 +9°C° 0.1 mm 6 mps 735 mmHg 54%
    15:00 +8°C° 0.1 mm 6 mps 735 mmHg 55%
    16:00 +8°C° 0.1 mm 5 mps 735 mmHg 57%
    17:00 +8°C° 0.1 mm 4 mps 736 mmHg 59%
    18:00 +6°C° 0 mm 4 mps 736 mmHg 63%
    19:00 +5°C° 0 mm 3 mps 736 mmHg 67%
    20:00 +4°C° 0 mm 2 mps 737 mmHg 71%
    21:00 +4°C° 0 mm 2 mps 737 mmHg 72%
    22:00 +3°C° 0 mm 2 mps 738 mmHg 72%
    23:00 +3°C° 0 mm 2 mps 738 mmHg 73%

    26 September, Wednesday

    Time Temperature Precipitation Wind Pressure Humidity
    00:00 +3°C° 0 mm 2 mps 738 mmHg 74%
    01:00 +2°C° 0 mm 2 mps 739 mmHg 75%
    02:00 +2°C° 0 mm 2 mps 739 mmHg 76%
    03:00 +1°C° 0 mm 2 mps 739 mmHg 78%
    04:00 +2°C° 0 mm 1 mps 739 mmHg 79%
    05:00 +2°C° 0 mm 1 mps 739 mmHg 80%
    06:00 +3°C° 0 mm 1 mps 739 mmHg 77%
    07:00 +4°C° 0 mm 1 mps 739 mmHg 73%
    08:00 +5°C° 0 mm 1 mps 740 mmHg 69%
    09:00 +7°C° 0 mm 1 mps 740 mmHg 61%
    10:00 +8°C° 0 mm 2 mps 740 mmHg 53%
    11:00 +10°C° 0 mm 2 mps 740 mmHg 45%
    12:00 +12°C° 0 mm 2 mps 739 mmHg 43%
    13:00 +12°C° 0 mm 2 mps 739 mmHg 41%
    14:00 +13°C° 0 mm 2 mps 739 mmHg 39%
    15:00 +13°C° 0 mm 2 mps 738 mmHg 43%
    16:00 +12°C° 0 mm 2 mps 737 mmHg 47%
    17:00 +12°C° 0 mm 1 mps 737 mmHg 51%
    18:00 +9°C° 0 mm 2 mps 737 mmHg 53%
    19:00 +8°C° 0 mm 2 mps 737 mmHg 55%
    20:00 +5°C° 0 mm 3 mps 737 mmHg 57%
    21:00 +5°C° 0 mm 3 mps 736 mmHg 56%
    22:00 +7°C° 0 mm 3 mps 736 mmHg 56%
    23:00 +6°C° 0 mm 4 mps 736 mmHg 55%

    27 September, Thursday

    Time Temperature Precipitation Wind Pressure Humidity
    00:00 +6°C° 0 mm 4 mps 736 mmHg 55%
    01:00 +6°C° 0 mm 4 mps 735 mmHg 54%
    02:00 +6°C° 0 mm 4 mps 735 mmHg 53%
    03:00 +6°C° 0 mm 4 mps 735 mmHg 53%
    04:00 +6°C° 0 mm 4 mps 734 mmHg 53%
    05:00 +6°C° 0 mm 5 mps 734 mmHg 53%
    06:00 +6°C° 0 mm 5 mps 734 mmHg 53%
    07:00 +6°C° 0 mm 5 mps 734 mmHg 52%
    08:00 +7°C° 0 mm 5 mps 733 mmHg 52%
    09:00 +7°C° 0.1 mm 5 mps 733 mmHg 54%
    10:00 +7°C° 0.1 mm 5 mps 733 mmHg 56%
    11:00 +8°C° 0.1 mm 5 mps 733 mmHg 58%
    12:00 +10°C° 0 mm 5 mps 733 mmHg 54%
    13:00 +13°C° 0 mm 5 mps 733 mmHg 49%
    14:00 +15°C° 0 mm 5 mps 733 mmHg 45%
    15:00 +14°C° 0 mm 5 mps 732 mmHg 48%
    16:00 +14°C° 0 mm 4 mps 732 mmHg 51%
    17:00 +14°C° 0 mm 4 mps 732 mmHg 54%
    18:00 +12°C° 0 mm 4 mps 732 mmHg 56%
    19:00 +11°C° 0 mm 3 mps 732 mmHg 57%
    20:00 +10°C° 0 mm 3 mps 732 mmHg 58%
    21:00 +10°C° 0 mm 3 mps 732 mmHg 58%
    22:00 +10°C° 0 mm 3 mps 732 mmHg 58%
    23:00 +10°C° 0 mm 3 mps 732 mmHg 58%

    28 September, Friday

    Time Temperature Precipitation Wind Pressure Humidity
    00:00 +10°C° 0 mm 2 mps 732 mmHg 59%
    01:00 +9°C° 0 mm 2 mps 732 mmHg 60%
    02:00 +9°C° 0 mm 2 mps 731 mmHg 61%
    03:00 +9°C° 0 mm 2 mps 731 mmHg 62%
    04:00 +8°C° 0 mm 2 mps 731 mmHg 63%
    05:00 +8°C° 0 mm 2 mps 730 mmHg 64%
    06:00 +9°C° 0 mm 2 mps 730 mmHg 63%
    07:00 +10°C° 0 mm 2 mps 730 mmHg 63%
    08:00 +10°C° 0 mm 2 mps 730 mmHg 62%
    09:00 +12°C° 0 mm 3 mps 730 mmHg 58%
    10:00 +16°C° 0 mm 3 mps 731 mmHg 53%
    11:00 +18°C° 0 mm 3 mps 731 mmHg 48%
    12:00 +19°C° 0 mm 3 mps 730 mmHg 48%
    13:00 +19°C° 0 mm 3 mps 730 mmHg 47%
    14:00 +20°C° 0 mm 3 mps 730 mmHg 47%
    15:00 +19°C° 0 mm 2 mps 730 mmHg 52%
    16:00 +19°C° 0 mm 2 mps 729 mmHg 56%
    17:00 +18°C° 0 mm 2 mps 729 mmHg 61%
    18:00 +16°C° 0 mm 1 mps 729 mmHg 64%
    19:00 +15°C° 0 mm 1 mps 729 mmHg 67%
    20:00 +13°C° 0 mm 1 mps 729 mmHg 70%
    21:00 +12°C° 0 mm 1 mps 729 mmHg 71%
    22:00 +12°C° 0 mm 1 mps 729 mmHg 71%
    23:00 +12°C° 0 mm 1 mps 729 mmHg 72%
    Show more